Terug naar catalogus

STARLINK-3913

ActiefCommunicatieVLEO
NORAD 52485·PAYLOAD·🇺🇸 United States

Gelanceerd May 6, 2022 vanaf Cape Canaveral Space Force Station

Loading…

Volgende Passages (komende 24 uur)

TLE

VersSource: CelesTrak SupGP

Epoch: Sep 15, 2026, 01:57 UTC

1 52485C 22049AL  26258.08173611 -.00003099  00000+0 -94014-4 0  2583
2 52485  53.1583 269.0776 0001327  86.6563 270.6222 15.33554056    14

Volg STARLINK-3913 in realtime met AllMySat

Download on the App Store